Hourly Data Report for July 19, 2021

LYNN LAKE
MANITOBA
Current Station Operator: NAVCAN

56°51'50.000" N
101°04'34.000" W
356.60 m
5061645
71078
YYL

Download Data

Hourly Data (July 2021)
Hourly Data Report for July 19, 2021
TIME
LST
Temp Definition
°C
Dew Point Definition
°C
Rel Hum Definition
%
Precip. Amount Definition
mm

Wind Dir Definition
10's deg

Wind Spd Definition
km/h
Visibility Definition
km
Stn Press Definition
kPa
Hmdx Definition


Wind Chill Definition


Weather Definition


00:00 9.3 7.8 90 0.0 LegendMM 4 16.1 98.32     LegendNANA
01:00 7.6 7.2 97 0.0 30 8 16.1 98.34     LegendNANA
02:00 7.6 7.2 97 0.0 30 8 16.1 98.34     LegendNANA
03:00 6.6 6.5 99 0.0 25 5 16.1 98.36     LegendNANA
04:00 6.8 6.7 99 0.0 LegendMM 4 16.1 98.40     LegendNANA
05:00 5.5 5.4 99 0.0 27 4 16.1 98.41     LegendNANA
06:00 8.6 8.5 99 0.0 32 4 16.1 98.44     LegendNANA
07:00 10.8 9.9 94 0.0 LegendMM 4 16.1 98.46     LegendNANA
08:00 15.0 8.9 66 0.0   0 16.1 98.44     LegendNANA
09:00 16.5 6.8 52 0.0 LegendMM 4 16.1 98.41     LegendNANA
10:00 16.8 7.0 52 0.0 14 5 16.1 98.40     LegendNANA
11:00 16.7 6.8 52 0.0 23 9 16.1 98.41     LegendNANA
12:00 17.3 7.0 51 0.0 LegendMM 4 16.1 98.37     LegendNANA
13:00 18.6 6.9 46 0.0 LegendMM 5 16.1 98.34     LegendNANA
14:00 18.8 7.5 47 0.0 16 9 16.1 98.29     LegendNANA
15:00 19.8 7.9 46 0.0 21 11 16.1 98.27     LegendNANA
16:00 18.4 6.9 47 0.0 24 8 16.1 98.25     LegendNANA
17:00 19.5 7.7 46 0.0 24 8 16.1 98.22     LegendNANA
18:00 18.5 8.1 50 0.0 17 5 16.1 98.19     LegendNANA
19:00 18.5 9.2 54 0.0 23 5 16.1 98.17     LegendNANA
20:00 17.7 8.9 56 0.0 17 5 16.1 98.15     LegendNANA
21:00 17.2 9.3 59 0.0 16 5 16.1 98.15     LegendNANA
22:00 16.6 8.6 59 0.0 18 5 16.1 98.15     LegendNANA
23:00 15.4 10.0 70 0.0 LegendMM 4 16.1 98.13     LegendNANA

Notes on Data Quality.

Legend

  • E = Estimated
  • M = Missing
  • NA = Not Available*
  • [empty] = Indicates an unobserved value
Date modified: